{"data":{"norad_id":58791,"intl_designator":"2024-012E","name":"STARLINK-31162","alt_names":[],"object_type":"PAYLOAD","status":"ACTIVE","operator":null,"country":"US","launch_date":"2024-01-15","launch_site_code":"AFETR","launch_vehicle":null,"mission":null,"orbit_class":"UNKNOWN","rcs_meters":null,"size_class":null,"mass_kg":null,"dimensions":null,"purposes":["comms"],"wikipedia_slug":null,"has_3d_model":false,"image_url":null,"decayed_at":null,"tle_current":{"epoch":"2026-05-25T03:56:24.863424Z","epoch_age_seconds":54809,"freshness":"FRESH","line1":"1 58791U 24012E   26145.16417666  .00000411  00000+0  24441-4 0  9998","line2":"2 58791  43.0036  93.2094 0000764 278.3671  81.7094 15.27579081132938","mean_motion":15.27579081,"eccentricity":7.64e-5,"inclination_deg":43.0036,"raan_deg":93.2094,"arg_perigee_deg":278.3671,"mean_anomaly_deg":81.7094,"bstar":2.4441e-5,"rev_number":13293,"period_min":94.266805425048,"perigee_km":482.52765302966,"apogee_km":483.57604268562,"semimajor_km":6861.1888478576,"source":"CELESTRAK","updated_at":"2026-05-25T13:38:18.749165Z"}}}